| time (UTC) | temp F | wind direction | speed knots | gust knots | rain 1hr in | rain 24hr in | rain mn in | humidity % | barometer mb |
| 20260506134504 | 61 | 175 | 6.1 | 13.0 | 0.00 | 0.00 | 0.00 | 79 | 1009.6 |
| 20260506134004 | 61 | 238 | 6.1 | 13.0 | 0.00 | 0.00 | 0.00 | 79 | 1009.6 |
| 20260506133508 | 61 | 192 | 7.0 | 13.9 | 0.00 | 0.00 | 0.00 | 79 | 1009.5 |
| 20260506133005 | 61 | 189 | 6.1 | 13.9 | 0.00 | 0.00 | 0.00 | 79 | 1009.3 |
| 20260506132506 | 61 | 178 | 7.0 | 13.0 | 0.00 | 0.00 | 0.00 | 79 | 1009.3 |
| 20260506132005 | 61 | 221 | 7.0 | 13.0 | 0.00 | 0.00 | 0.00 | 79 | 1009.4 |
| 20260506131508 | 61 | 196 | 6.1 | 14.8 | 0.00 | 0.00 | 0.00 | 78 | 1009.3 |
| 20260506131007 | 61 | 237 | 6.1 | 14.8 | 0.00 | 0.00 | 0.00 | 78 | 1009.4 |
| 20260506130503 | 62 | 237 | 7.0 | 14.8 | 0.00 | 0.00 | 0.00 | 78 | 1009.3 |
| 20260506130004 | 62 | 202 | 5.2 | 14.8 | 0.00 | 0.00 | 0.00 | 78 | 1009.4 |
| 20260506125502 | 62 | 204 | 5.2 | 9.6 | 0.00 | 0.00 | 0.00 | 78 | 1009.4 |
| 20260506125004 | 62 | 196 | 5.2 | 12.2 | 0.00 | 0.00 | 0.00 | 78 | 1009.4 |
| 20260506124503 | 62 | 196 | 6.1 | 12.2 | 0.00 | 0.00 | 0.00 | 78 | 1009.5 |
| 20260506124002 | 62 | 254 | 5.2 | 10.4 | 0.00 | 0.00 | 0.00 | 79 | 1009.7 |
| 20260506123502 | 62 | 207 | 5.2 | 12.2 | 0.00 | 0.00 | 0.00 | 79 | 1009.6 |
| 20260506123100 | 62 | 213 | 6.1 | 10.4 | 0.00 | 0.00 | 0.00 | 79 | 1009.6 |
| 20260506122602 | 61 | 188 | 4.3 | 8.7 | 0.00 | 0.00 | 0.00 | 80 | 1009.8 |
| 20260506122058 | 61 | 234 | 5.2 | 8.7 | 0.00 | 0.00 | 0.00 | 80 | 1009.7 |
| 20260506121557 | 61 | 175 | 4.3 | 8.7 | 0.00 | 0.00 | 0.00 | 80 | 1009.7 |
| 20260506121057 | 61 | 214 | 4.3 | 8.7 | 0.00 | 0.00 | 0.00 | 81 | 1009.6 |
| 20260506120557 | 60 | 221 | 4.3 | 8.7 | 0.00 | 0.00 | 0.00 | 81 | 1009.6 |
| 20260506120055 | 60 | 198 | 4.3 | 10.4 | 0.00 | 0.00 | 0.00 | 81 | 1009.6 |
| 20260506115559 | 60 | 202 | 2.6 | 8.7 | 0.00 | 0.00 | 0.00 | 82 | 1009.4 |
| 20260506115055 | 60 | 241 | 5.2 | 8.7 | 0.00 | 0.00 | 0.00 | 82 | 1009.6 |
| 20260506114604 | 60 | 168 | 5.2 | 8.7 | 0.00 | 0.00 | 0.00 | 82 | 1009.4 |
| 20260506114054 | 59 | 204 | 6.1 | 12.2 | 0.00 | 0.00 | 0.00 | 82 | 1009.4 |
| 20260506113553 | 59 | 188 | 4.3 | 12.2 | 0.00 | 0.00 | 0.00 | 83 | 1009.5 |
| 20260506113054 | 59 | 190 | 6.1 | 9.6 | 0.00 | 0.00 | 0.00 | 83 | 1009.6 |
| 20260506112553 | 59 | 194 | 4.3 | 10.4 | 0.00 | 0.00 | 0.00 | 83 | 1009.6 |
| 20260506112057 | 58 | 238 | 6.1 | 8.7 | 0.00 | 0.00 | 0.00 | 84 | 1009.4 |
| 20260506111553 | 58 | 187 | 4.3 | 9.6 | 0.00 | 0.00 | 0.00 | 84 | 1009.6 |
| 20260506111052 | 58 | 207 | 3.5 | 9.6 | 0.00 | 0.00 | 0.00 | 84 | 1009.7 |
| 20260506110552 | 58 | 178 | 4.3 | 8.7 | 0.00 | 0.00 | 0.00 | 84 | 1009.7 |
| 20260506110051 | 58 | 189 | 4.3 | 8.7 | 0.00 | 0.00 | 0.00 | 84 | 1009.5 |
| 20260506105551 | 58 | 244 | 5.2 | 8.7 | 0.00 | 0.00 | 0.00 | 84 | 1009.6 |
| 20260506105052 | 58 | 186 | 4.3 | 7.8 | 0.00 | 0.00 | 0.00 | 84 | 1009.6 |
| 20260506104611 | 57 | 167 | 3.5 | 8.7 | 0.00 | 0.00 | 0.00 | 85 | 1009.5 |
| 20260506104050 | 57 | 221 | 3.5 | 8.7 | 0.00 | 0.00 | 0.00 | 85 | 1009.5 |
| 20260506103650 | 57 | 204 | 4.3 | 12.2 | 0.00 | 0.00 | 0.00 | 85 | 1009.5 |
| 20260506103049 | 57 | 196 | 3.5 | 8.7 | 0.00 | 0.00 | 0.00 | 85 | 1009.6 |
| 20260506102550 | 57 | 194 | 4.3 | 9.6 | 0.00 | 0.00 | 0.00 | 84 | 1009.6 |
| 20260506102049 | 57 | 159 | 4.3 | 10.4 | 0.00 | 0.00 | 0.00 | 84 | 1009.6 |
| 20260506101550 | 57 | 198 | 2.6 | 9.6 | 0.00 | 0.00 | 0.00 | 84 | 1009.7 |
| 20260506101148 | 57 | 242 | 5.2 | 9.6 | 0.00 | 0.00 | 0.00 | 84 | 1009.6 |
| 20260506100546 | 57 | 169 | 4.3 | 10.4 | 0.00 | 0.00 | 0.00 | 84 | 1009.5 |
| 20260506100047 | 57 | 229 | 4.3 | 10.4 | 0.00 | 0.00 | 0.00 | 84 | 1009.6 |
| 20260506095549 | 57 | 217 | 3.5 | 7.0 | 0.00 | 0.00 | 0.00 | 84 | 1009.5 |
| 20260506095046 | 57 | 188 | 3.5 | 8.7 | 0.00 | 0.00 | 0.00 | 84 | 1009.5 |
| 20260506094545 | 57 | 172 | 3.5 | 8.7 | 0.00 | 0.00 | 0.00 | 84 | 1009.4 |
| 20260506094044 | 57 | 188 | 4.3 | 8.7 | 0.00 | 0.00 | 0.00 | 84 | 1009.5 |
| 20260506093544 | 57 | 213 | 3.5 | 7.8 | 0.00 | 0.00 | 0.00 | 84 | 1009.5 |
| 20260506093043 | 57 | 219 | 2.6 | 7.0 | 0.00 | 0.00 | 0.00 | 84 | 1009.4 |
| 20260506092543 | 57 | 213 | 3.5 | 7.0 | 0.00 | 0.00 | 0.00 | 84 | 1009.6 |
| 20260506092043 | 57 | 96 | 3.5 | 8.7 | 0.00 | 0.00 | 0.00 | 83 | 1009.6 |
| 20260506091543 | 57 | 211 | 4.3 | 8.7 | 0.00 | 0.00 | 0.00 | 83 | 1009.7 |
| 20260506091044 | 57 | 200 | 4.3 | 7.8 | 0.00 | 0.00 | 0.00 | 83 | 1009.6 |
| 20260506090540 | 57 | 172 | 3.5 | 7.8 | 0.00 | 0.00 | 0.00 | 83 | 1009.7 |
| 20260506090045 | 57 | 205 | 3.5 | 7.8 | 0.00 | 0.00 | 0.00 | 83 | 1009.7 |
| 20260506085539 | 57 | 231 | 4.3 | 7.8 | 0.00 | 0.00 | 0.00 | 83 | 1009.8 |
| 20260506085041 | 57 | 166 | 4.3 | 7.0 | 0.00 | 0.00 | 0.00 | 83 | 1009.9 |
| 20260506084539 | 58 | 213 | 2.6 | 7.8 | 0.00 | 0.00 | 0.00 | 83 | 1009.8 |
| 20260506084038 | 58 | 193 | 3.5 | 9.6 | 0.00 | 0.00 | 0.00 | 83 | 1009.9 |
| 20260506083539 | 58 | 249 | 4.3 | 8.7 | 0.00 | 0.00 | 0.00 | 83 | 1009.9 |
| 20260506083042 | 58 | 203 | 4.3 | 8.7 | 0.00 | 0.00 | 0.00 | 82 | 1009.9 |
| 20260506082537 | 58 | 152 | 4.3 | 8.7 | 0.00 | 0.00 | 0.00 | 82 | 1009.9 |
| 20260506082037 | 58 | 215 | 4.3 | 8.7 | 0.00 | 0.00 | 0.00 | 82 | 1010.0 |
| 20260506081537 | 58 | 211 | 3.5 | 8.7 | 0.00 | 0.00 | 0.00 | 82 | 1010.0 |
| 20260506081036 | 58 | 229 | 3.5 | 11.3 | 0.00 | 0.00 | 0.00 | 82 | 1009.9 |
| 20260506080538 | 58 | 213 | 5.2 | 11.3 | 0.00 | 0.00 | 0.00 | 82 | 1009.9 |
| 20260506073031 | 58 | 213 | 5.2 | 10.4 | 0.00 | 0.00 | 0.00 | 81 | 1010.2 |
| 20260506072531 | 58 | 218 | 7.0 | 10.4 | 0.00 | 0.00 | 0.00 | 81 | 1010.2 |
| 20260506072031 | 58 | 190 | 6.1 | 11.3 | 0.00 | 0.00 | 0.00 | 81 | 1010.3 |
| 20260506071532 | 58 | 224 | 5.2 | 10.4 | 0.00 | 0.00 | 0.00 | 81 | 1010.3 |
| 20260506071029 | 58 | 235 | 6.1 | 9.6 | 0.00 | 0.00 | 0.00 | 81 | 1010.3 |
| 20260506070528 | 58 | 186 | 4.3 | 10.4 | 0.00 | 0.00 | 0.00 | 81 | 1010.3 |
| 20260506062023 | 59 | 203 | 6.1 | 12.2 | 0.00 | 0.00 | 0.00 | 80 | 1010.1 |
| 20260506061522 | 59 | 210 | 7.0 | 12.2 | 0.00 | 0.00 | 0.00 | 80 | 1010.3 |
| 20260506061023 | 59 | 254 | 6.1 | 12.2 | 0.00 | 0.00 | 0.00 | 80 | 1010.2 |
| 20260506060518 | 59 | 211 | 6.1 | 12.2 | 0.00 | 0.00 | 0.00 | 80 | 1010.2 |
| 20260506051015 | 60 | 228 | 6.1 | 12.2 | 0.00 | 0.00 | 0.00 | 78 | 1010.5 |
| 20260506050513 | 60 | 203 | 7.8 | 14.8 | 0.00 | 0.00 | 0.00 | 78 | 1010.6 |
| 20260506045012 | 60 | 225 | 8.7 | 15.6 | 0.00 | 0.00 | 0.00 | 78 | 1010.4 |
| 20260506044511 | 60 | 218 | 7.8 | 13.9 | 0.00 | 0.00 | 0.00 | 78 | 1010.6 |
| 20260506044011 | 60 | 195 | 6.1 | 14.8 | 0.00 | 0.00 | 0.00 | 78 | 1010.6 |
| 20260506043513 | 60 | 205 | 7.0 | 14.8 | 0.00 | 0.00 | 0.00 | 78 | 1010.7 |
| 20260506043014 | 60 | 205 | 8.7 | 14.8 | 0.00 | 0.00 | 0.00 | 78 | 1010.6 |
| 20260506042513 | 60 | 219 | 7.8 | 13.0 | 0.00 | 0.00 | 0.00 | 78 | 1010.7 |
| 20260506042008 | 60 | 206 | 7.8 | 12.2 | 0.00 | 0.00 | 0.00 | 78 | 1010.7 |
| 20260506041508 | 60 | 155 | 6.1 | 12.2 | 0.00 | 0.00 | 0.00 | 78 | 1010.8 |
| 20260506041006 | 60 | 203 | 7.0 | 13.0 | 0.00 | 0.00 | 0.00 | 77 | 1010.8 |
| 20260506040505 | 60 | 196 | 7.8 | 13.9 | 0.00 | 0.00 | 0.00 | 77 | 1010.8 |
| 20260506040005 | 60 | 172 | 7.0 | 11.3 | 0.00 | 0.00 | 0.00 | 77 | 1010.8 |
| 20260506035504 | 60 | 217 | 7.0 | 13.9 | 0.00 | 0.00 | 0.00 | 77 | 1010.6 |
| 20260506035004 | 60 | 182 | 6.1 | 14.8 | 0.00 | 0.00 | 0.00 | 77 | 1010.8 |
| 20260506034504 | 60 | 217 | 7.0 | 14.8 | 0.00 | 0.00 | 0.00 | 77 | 1010.7 |
| 20260506034004 | 60 | 207 | 7.0 | 13.9 | 0.00 | 0.00 | 0.00 | 77 | 1010.6 |
| 20260506033503 | 60 | 194 | 5.2 | 13.9 | 0.00 | 0.00 | 0.00 | 77 | 1010.7 |
| 20260506033004 | 60 | 149 | 7.0 | 13.0 | 0.00 | 0.00 | 0.00 | 77 | 1010.5 |
| 20260506032503 | 60 | 188 | 7.8 | 13.0 | 0.00 | 0.00 | 0.00 | 77 | 1010.6 |
| 20260506032003 | 60 | 196 | 6.1 | 13.0 | 0.00 | 0.00 | 0.00 | 77 | 1010.6 |
| 20260506031503 | 60 | 168 | 7.0 | 13.0 | 0.00 | 0.00 | 0.00 | 77 | 1010.6 |
| 20260506031003 | 60 | 218 | 6.1 | 13.0 | 0.00 | 0.00 | 0.00 | 77 | 1010.7 |
| 20260506030503 | 61 | 199 | 7.0 | 14.8 | 0.00 | 0.00 | 0.00 | 77 | 1010.6 |
| 20260506030002 | 61 | 247 | 7.0 | 14.8 | 0.00 | 0.00 | 0.00 | 77 | 1010.7 |
| 20260506025501 | 61 | 142 | 6.1 | 10.4 | 0.00 | 0.00 | 0.00 | 77 | 1010.8 |
| 20260506025002 | 61 | 252 | 6.1 | 15.6 | 0.00 | 0.00 | 0.00 | 77 | 1010.7 |
| 20260506024501 | 61 | 242 | 7.8 | 15.6 | 0.00 | 0.00 | 0.00 | 76 | 1010.7 |
| 20260506024001 | 61 | 180 | 7.0 | 13.9 | 0.00 | 0.00 | 0.00 | 76 | 1010.8 |
| 20260506023502 | 61 | 242 | 5.2 | 13.9 | 0.00 | 0.00 | 0.00 | 76 | 1010.8 |
| 20260506023000 | 61 | 192 | 7.0 | 12.2 | 0.00 | 0.00 | 0.00 | 76 | 1010.8 |
| 20260506022502 | 61 | 213 | 7.0 | 10.4 | 0.00 | 0.00 | 0.00 | 75 | 1010.7 |
| 20260506022100 | 61 | 178 | 6.1 | 9.6 | 0.00 | 0.00 | 0.00 | 75 | 1010.7 |
| 20260506021605 | 61 | 180 | 6.1 | 10.4 | 0.00 | 0.00 | 0.00 | 74 | 1010.7 |
| 20260506021100 | 61 | 189 | 6.1 | 11.3 | 0.00 | 0.00 | 0.00 | 74 | 1010.6 |
| 20260506020601 | 62 | 211 | 5.2 | 11.3 | 0.00 | 0.00 | 0.00 | 73 | 1010.7 |
| 20260506020058 | 62 | 228 | 5.2 | 11.3 | 0.00 | 0.00 | 0.00 | 73 | 1010.6 |
| 20260506015600 | 62 | 190 | 6.1 | 11.3 | 0.00 | 0.00 | 0.00 | 72 | 1010.5 |
| 20260506015059 | 62 | 215 | 6.1 | 11.3 | 0.00 | 0.00 | 0.00 | 72 | 1010.6 |
| 20260506014559 | 62 | 202 | 7.0 | 12.2 | 0.00 | 0.00 | 0.00 | 71 | 1010.5 |
| 20260506014058 | 63 | 225 | 7.0 | 13.9 | 0.00 | 0.00 | 0.00 | 71 | 1010.4 |
| 20260506013557 | 63 | 240 | 8.7 | 13.9 | 0.00 | 0.00 | 0.00 | 71 | 1010.3 |
| 20260506013058 | 63 | 217 | 6.1 | 16.5 | 0.00 | 0.00 | 0.00 | 70 | 1010.2 |
| 20260506012558 | 63 | 211 | 7.0 | 16.5 | 0.00 | 0.00 | 0.00 | 70 | 1010.2 |
| 20260506012100 | 63 | 184 | 5.2 | 15.6 | 0.00 | 0.00 | 0.00 | 71 | 1010.1 |
| 20260506011557 | 63 | 217 | 6.1 | 15.6 | 0.00 | 0.00 | 0.00 | 71 | 1010.0 |
| 20260506011057 | 62 | 209 | 8.7 | 13.9 | 0.00 | 0.00 | 0.00 | 71 | 1009.9 |
| 20260506010556 | 62 | 246 | 8.7 | 13.0 | 0.00 | 0.00 | 0.00 | 72 | 1010.0 |
| 20260506010058 | 62 | 192 | 7.8 | 17.4 | 0.00 | 0.00 | 0.00 | 72 | 1009.9 |
| 20260506005556 | 62 | 136 | 9.6 | 17.4 | 0.00 | 0.00 | 0.00 | 72 | 1009.8 |
| 20260506005056 | 62 | 231 | 7.8 | 14.8 | 0.00 | 0.00 | 0.00 | 71 | 1009.7 |
| 20260506004556 | 62 | 217 | 6.1 | 13.9 | 0.00 | 0.00 | 0.00 | 71 | 1009.8 |
| 20260506004056 | 62 | 192 | 7.8 | 13.0 | 0.00 | 0.00 | 0.00 | 71 | 1009.8 |
| 20260506003559 | 62 | 206 | 7.8 | 13.0 | 0.00 | 0.00 | 0.00 | 71 | 1009.8 |
| 20260506003102 | 62 | 188 | 7.0 | 15.6 | 0.00 | 0.00 | 0.00 | 71 | 1009.7 |
| 20260506002555 | 62 | 179 | 7.0 | 15.6 | 0.00 | 0.00 | 0.00 | 71 | 1009.6 |
| 20260506002055 | 62 | 177 | 8.7 | 18.2 | 0.00 | 0.00 | 0.00 | 71 | 1009.5 |
| 20260506001606 | 63 | 226 | 8.7 | 18.2 | 0.00 | 0.00 | 0.00 | 71 | 1009.5 |
| 20260506001056 | 63 | 234 | 6.1 | 13.0 | 0.00 | 0.00 | 0.00 | 70 | 1009.3 |
| 20260506000555 | 63 | 179 | 8.7 | 13.0 | 0.00 | 0.00 | 0.00 | 70 | 1009.1 |
| 20260506000055 | 63 | 188 | 7.0 | 13.0 | 0.00 | 0.00 | 0.00 | 70 | 1009.3 |
| 20260505235554 | 63 | 230 | 7.8 | 16.5 | 0.00 | 0.00 | 0.00 | 69 | 1009.0 |
| 20260505235054 | 63 | 244 | 6.1 | 16.5 | 0.00 | 0.00 | 0.00 | 69 | 1008.9 |
| 20260505234610 | 63 | 231 | 7.8 | 14.8 | 0.00 | 0.00 | 0.00 | 69 | 1008.9 |
| 20260505234055 | 63 | 227 | 4.3 | 13.9 | 0.00 | 0.00 | 0.00 | 69 | 1009.0 |
| 20260505233556 | 63 | 194 | 6.1 | 13.9 | 0.00 | 0.00 | 0.00 | 69 | 1009.0 |
| 20260505233054 | 63 | 231 | 7.8 | 14.8 | 0.00 | 0.00 | 0.00 | 69 | 1009.0 |
| 20260505232554 | 63 | 132 | 7.0 | 14.8 | 0.00 | 0.00 | 0.00 | 69 | 1009.0 |
| 20260505232056 | 63 | 200 | 4.3 | 11.3 | 0.00 | 0.00 | 0.00 | 69 | 1008.8 |
| 20260505231554 | 64 | 221 | 6.1 | 11.3 | 0.00 | 0.00 | 0.00 | 69 | 1008.8 |
| 20260505231053 | 64 | 270 | 5.2 | 14.8 | 0.00 | 0.00 | 0.00 | 68 | 1008.7 |
| 20260505230552 | 64 | 248 | 7.0 | 14.8 | 0.00 | 0.00 | 0.00 | 68 | 1008.8 |
| 20260505230052 | 64 | 196 | 7.8 | 13.9 | 0.00 | 0.00 | 0.00 | 68 | 1008.8 |
| 20260505225556 | 64 | 223 | 5.2 | 17.4 | 0.00 | 0.00 | 0.00 | 68 | 1008.8 |
| 20260505225153 | 64 | 209 | 4.3 | 17.4 | 0.00 | 0.00 | 0.00 | 67 | 1008.8 |
| 20260505224552 | 65 | 194 | 4.3 | 11.3 | 0.00 | 0.00 | 0.00 | 67 | 1008.7 |
| 20260505224053 | 65 | 203 | 5.2 | 13.9 | 0.00 | 0.00 | 0.00 | 67 | 1008.7 |
| 20260505223554 | 65 | 211 | 6.1 | 13.9 | 0.00 | 0.00 | 0.00 | 66 | 1008.6 |
| 20260505223105 | 65 | 207 | 5.2 | 9.6 | 0.00 | 0.00 | 0.00 | 66 | 1008.6 |
| 20260505222551 | 65 | 142 | 6.1 | 11.3 | 0.00 | 0.00 | 0.00 | 66 | 1008.6 |
| 20260505222051 | 65 | 223 | 6.1 | 11.3 | 0.00 | 0.00 | 0.00 | 66 | 1008.5 |
| 20260505221552 | 65 | 227 | 6.1 | 13.0 | 0.00 | 0.00 | 0.00 | 66 | 1008.5 |
| 20260505221053 | 65 | 360 | 5.2 | 13.0 | 0.00 | 0.00 | 0.00 | 66 | 1008.5 |
| 20260505220550 | 65 | 254 | 6.1 | 16.5 | 0.00 | 0.00 | 0.00 | 66 | 1008.5 |
| 20260505220051 | 66 | 247 | 5.2 | 13.0 | 0.00 | 0.00 | 0.00 | 65 | 1008.5 |
| 20260505215553 | 66 | 174 | 6.1 | 11.3 | 0.00 | 0.00 | 0.00 | 65 | 1008.4 |
| 20260505215050 | 66 | 236 | 7.0 | 13.0 | 0.00 | 0.00 | 0.00 | 65 | 1008.4 |
| 20260505214557 | 66 | 225 | 7.8 | 13.0 | 0.00 | 0.00 | 0.00 | 64 | 1008.4 |
| 20260505214051 | 66 | 190 | 7.0 | 13.0 | 0.00 | 0.00 | 0.00 | 65 | 1008.3 |
| 20260505213550 | 66 | 196 | 6.1 | 10.4 | 0.00 | 0.00 | 0.00 | 64 | 1008.0 |
| 20260505213053 | 67 | 204 | 6.1 | 12.2 | 0.00 | 0.00 | 0.00 | 64 | 1008.2 |
| 20260505212549 | 67 | 221 | 6.1 | 15.6 | 0.00 | 0.00 | 0.00 | 63 | 1008.2 |
| 20260505212049 | 67 | 190 | 7.8 | 15.6 | 0.00 | 0.00 | 0.00 | 63 | 1008.1 |
| 20260505211601 | 67 | 193 | 5.2 | 12.2 | 0.00 | 0.00 | 0.00 | 64 | 1008.1 |
| 20260505211050 | 67 | 213 | 5.2 | 12.2 | 0.00 | 0.00 | 0.00 | 64 | 1007.9 |
| 20260505210548 | 67 | 215 | 7.0 | 11.3 | 0.00 | 0.00 | 0.00 | 64 | 1008.0 |
| 20260505210048 | 67 | 215 | 7.8 | 13.0 | 0.00 | 0.00 | 0.00 | 63 | 1007.9 |
| 20260505205548 | 67 | 181 | 7.0 | 13.0 | 0.00 | 0.00 | 0.00 | 64 | 1008.0 |
| 20260505205049 | 67 | 182 | 7.8 | 13.0 | 0.00 | 0.00 | 0.00 | 63 | 1008.1 |
| 20260505204548 | 67 | 213 | 7.8 | 13.0 | 0.00 | 0.00 | 0.00 | 64 | 1008.1 |
| 20260505204047 | 68 | 196 | 9.6 | 13.0 | 0.00 | 0.00 | 0.00 | 64 | 1008.1 |
| 20260505203547 | 68 | 161 | 7.0 | 14.8 | 0.00 | 0.00 | 0.00 | 64 | 1008.0 |
| 20260505203105 | 68 | 196 | 4.3 | 12.2 | 0.00 | 0.00 | 0.00 | 63 | 1008.1 |
| 20260505202546 | 68 | 192 | 5.2 | 9.6 | 0.00 | 0.00 | 0.00 | 63 | 1008.1 |
| 20260505202046 | 68 | 198 | 5.2 | 11.3 | 0.00 | 0.00 | 0.00 | 63 | 1008.2 |
| 20260505201545 | 69 | 213 | 6.1 | 12.2 | 0.00 | 0.00 | 0.00 | 62 | 1008.3 |
| 20260505201045 | 69 | 200 | 7.0 | 12.2 | 0.00 | 0.00 | 0.00 | 61 | 1008.3 |
| 20260505200544 | 70 | 185 | 6.1 | 11.3 | 0.00 | 0.00 | 0.00 | 61 | 1008.4 |
| 20260505200044 | 70 | 150 | 4.3 | 9.6 | 0.00 | 0.00 | 0.00 | 62 | 1008.4 |
| 20260505195543 | 70 | 219 | 4.3 | 7.8 | 0.00 | 0.00 | 0.00 | 63 | 1008.4 |
| 20260505195043 | 70 | 206 | 4.3 | 7.8 | 0.00 | 0.00 | 0.00 | 63 | 1008.3 |
| 20260505194544 | 69 | 198 | 4.3 | 8.7 | 0.00 | 0.00 | 0.00 | 64 | 1008.4 |
| 20260505194041 | 69 | 173 | 4.3 | 11.3 | 0.00 | 0.00 | 0.00 | 63 | 1008.5 |
| 20260505193541 | 69 | 178 | 6.1 | 11.3 | 0.00 | 0.00 | 0.00 | 62 | 1008.5 |
| 20260505193040 | 69 | 234 | 7.0 | 13.0 | 0.00 | 0.00 | 0.00 | 63 | 1008.6 |
| 20260505192542 | 69 | 223 | 7.0 | 11.3 | 0.00 | 0.00 | 0.00 | 62 | 1008.7 |
| 20260505192038 | 69 | 190 | 6.1 | 11.3 | 0.00 | 0.00 | 0.00 | 63 | 1008.7 |
| 20260505191544 | 70 | 192 | 5.2 | 9.6 | 0.00 | 0.00 | 0.00 | 62 | 1008.9 |
| 20260505191038 | 70 | 232 | 6.1 | 12.2 | 0.00 | 0.00 | 0.00 | 62 | 1009.0 |
| 20260505190536 | 70 | 252 | 6.1 | 11.3 | 0.00 | 0.00 | 0.00 | 62 | 1009.0 |
| 20260505190040 | 70 | 209 | 5.2 | 10.4 | 0.00 | 0.00 | 0.00 | 61 | 1009.0 |
| 20260505185539 | 70 | 171 | 4.3 | 11.3 | 0.00 | 0.00 | 0.00 | 61 | 1009.1 |
| 20260505185035 | 70 | 179 | 6.1 | 12.2 | 0.00 | 0.00 | 0.00 | 62 | 1009.0 |
| 20260505184545 | 70 | 211 | 5.2 | 12.2 | 0.00 | 0.00 | 0.00 | 62 | 1009.1 |
| 20260505184035 | 70 | 128 | 4.3 | 13.0 | 0.00 | 0.00 | 0.00 | 62 | 1009.0 |
| 20260505183535 | 70 | 205 | 5.2 | 15.6 | 0.00 | 0.00 | 0.00 | 62 | 1009.0 |
| 20260505183041 | 69 | 206 | 6.1 | 15.6 | 0.00 | 0.00 | 0.00 | 63 | 1009.1 |
| 20260505182535 | 70 | 186 | 4.3 | 11.3 | 0.00 | 0.00 | 0.00 | 63 | 1009.2 |
| 20260505182033 | 71 | 271 | 4.3 | 11.3 | 0.00 | 0.00 | 0.00 | 61 | 1009.3 |
| 20260505181532 | 71 | 209 | 2.6 | 9.6 | 0.00 | 0.00 | 0.00 | 62 | 1009.3 |
| 20260505181037 | 70 | 235 | 3.5 | 10.4 | 0.00 | 0.00 | 0.00 | 62 | 1009.3 |
| 20260505180534 | 71 | 146 | 2.6 | 10.4 | 0.00 | 0.00 | 0.00 | 63 | 1009.4 |
| 20260505180031 | 71 | 195 | 4.3 | 9.6 | 0.00 | 0.00 | 0.00 | 62 | 1009.4 |
| 20260505175531 | 70 | 188 | 3.5 | 9.6 | 0.00 | 0.00 | 0.00 | 62 | 1009.3 |
| 20260505175032 | 70 | 190 | 5.2 | 9.6 | 0.00 | 0.00 | 0.00 | 63 | 1009.3 |
| 20260505174530 | 71 | 214 | 6.1 | 10.4 | 0.00 | 0.00 | 0.00 | 61 | 1009.3 |
| 20260505174031 | 71 | 211 | 4.3 | 12.2 | 0.00 | 0.00 | 0.00 | 63 | 1009.3 |
| 20260505173531 | 71 | 168 | 6.1 | 12.2 | 0.00 | 0.00 | 0.00 | 61 | 1009.3 |
| 20260505173031 | 71 | 188 | 5.2 | 13.0 | 0.00 | 0.00 | 0.00 | 61 | 1009.4 |
| 20260505172529 | 72 | 207 | 4.3 | 13.0 | 0.00 | 0.00 | 0.00 | 60 | 1009.4 |
| 20260505172030 | 72 | 257 | 5.2 | 9.6 | 0.00 | 0.00 | 0.00 | 61 | 1009.3 |
| 20260505171529 | 72 | 235 | 4.3 | 9.6 | 0.00 | 0.00 | 0.00 | 61 | 1009.3 |
| 20260505171029 | 71 | 194 | 4.3 | 9.6 | 0.00 | 0.00 | 0.00 | 61 | 1009.4 |
| 20260505170528 | 71 | 206 | 3.5 | 7.0 | 0.00 | 0.00 | 0.00 | 62 | 1009.3 |
| 20260505170035 | 71 | 176 | 3.5 | 8.7 | 0.00 | 0.00 | 0.00 | 62 | 1009.4 |
| 20260505165527 | 71 | 215 | 3.5 | 8.7 | 0.00 | 0.00 | 0.00 | 62 | 1009.6 |
| 20260505165026 | 71 | 205 | 3.5 | 8.7 | 0.00 | 0.00 | 0.00 | 62 | 1009.7 |
| 20260505164533 | 72 | 229 | 3.5 | 7.0 | 0.00 | 0.00 | 0.00 | 60 | 1009.7 |
| 20260505164027 | 72 | 189 | 4.3 | 10.4 | 0.00 | 0.00 | 0.00 | 63 | 1009.8 |
| 20260505163526 | 72 | 135 | 4.3 | 10.4 | 0.00 | 0.00 | 0.00 | 61 | 1009.8 |
| 20260505163028 | 73 | 198 | 3.5 | 9.6 | 0.00 | 0.00 | 0.00 | 59 | 1009.8 |
| 20260505162527 | 73 | 215 | 2.6 | 8.7 | 0.00 | 0.00 | 0.00 | 60 | 1009.9 |
| 20260505162023 | 72 | 217 | 3.5 | 8.7 | 0.00 | 0.00 | 0.00 | 59 | 1009.9 |
| 20260505161522 | 72 | 209 | 4.3 | 7.0 | 0.00 | 0.00 | 0.00 | 59 | 1009.8 |
| 20260505161024 | 72 | 219 | 4.3 | 11.3 | 0.00 | 0.00 | 0.00 | 60 | 1009.9 |
| 20260505160522 | 72 | 186 | 4.3 | 11.3 | 0.00 | 0.00 | 0.00 | 60 | 1010.0 |
| 20260505153015 | 71 | 174 | 3.5 | 7.8 | 0.00 | 0.00 | 0.00 | 63 | 1010.4 |
| 20260505152513 | 70 | 205 | 3.5 | 7.8 | 0.00 | 0.00 | 0.00 | 63 | 1010.4 |
| 20260505152013 | 70 | 184 | 3.5 | 7.8 | 0.00 | 0.00 | 0.00 | 63 | 1010.5 |
| 20260505151516 | 70 | 241 | 4.3 | 7.8 | 0.00 | 0.00 | 0.00 | 64 | 1010.6 |
| 20260505151012 | 70 | 180 | 3.5 | 9.6 | 0.00 | 0.00 | 0.00 | 63 | 1010.5 |
| 20260505150513 | 70 | 232 | 4.3 | 9.6 | 0.00 | 0.00 | 0.00 | 63 | 1010.5 |
| 20260505140600 | 65 | 204 | 3.5 | 6.1 | 0.00 | 0.00 | 0.00 | 71 | 1010.4 |
| 20260505140121 | 65 | 245 | 2.6 | 6.1 | 0.00 | 0.00 | 0.00 | 72 | 1010.3 |